Location: Atbuku
(36.4936°N, 30.4362°E)
Time: 17:45:41
(UTC+00:00)

Cosmos 2297 Rocket - Pass Details

Date: 11 December 2025
Orbit: 837 x 844 km, 71.0° (Epoch: 15 January)

Event Time Altitude Azimuth Distance (km) Brightness Sun altitude
Rises 16:06:23 0° 328° (NNW) 3,406 5.6 -16.3°
Reaches altitude 10° 16:09:01 10° 320° (NW) 2,468 4.9 -16.8°
Maximum altitude 16:14:05 35° 256° (WSW) 1,343 3.9 -17.8°
Drops below altitude 10° 16:19:07 10° 193° (SSW) 2,453 5.0 -18.7°
Sets 16:21:45 0° 184° (S) 3,383 5.6 -19.2°
